When you browse on this site, cookies collect data to enhance your experience and personalize the content and advertising you see.
Visit our Privacy Policy to learn more. By continuing to use the site, you agree to this use of cookies and data.
  • In Hungary
  • List of Countries
  • For 7 days
  • Water Temperature
  • Weather Map
  • News
  • Weather Widgets
  • user-avatar
    Login

    Hourly Weather Tarso

    Today, 29 March, Sunday

    Time Temperature Precipitation Wind Pressure Humidity
    00:00 +19°C° 0.4 mm 0 mps 652 mmHg 96%
    01:00 +20°C° 0 mm 1 mps 652 mmHg 97%
    02:00 +18°C° 0.5 mm 0 mps 652 mmHg 97%
    03:00 +18°C° 0.5 mm 0 mps 652 mmHg 97%
    04:00 +18°C° 0.5 mm 0 mps 652 mmHg 97%
    05:00 +18°C° 0.3 mm 0 mps 652 mmHg 96%
    06:00 +19°C° 0.3 mm 0 mps 653 mmHg 95%
    07:00 +19°C° 0 mm 0 mps 653 mmHg 94%
    08:00 +21°C° 0.8 mm 0 mps 654 mmHg 89%
    09:00 +23°C° 0.8 mm 0 mps 654 mmHg 84%
    10:00 +24°C° 0.8 mm 0 mps 655 mmHg 79%
    11:00 +25°C° 0.9 mm 0 mps 655 mmHg 74%
    12:00 +26°C° 0.9 mm 0 mps 654 mmHg 70%
    13:00 +27°C° 0.9 mm 0 mps 654 mmHg 65%
    14:00 +27°C° 0.9 mm 0 mps 653 mmHg 68%
    15:00 +26°C° 0.9 mm 0 mps 653 mmHg 71%
    16:00 +25°C° 0.9 mm 0 mps 652 mmHg 73%
    17:00 +25°C° 0.6 mm 1 mps 652 mmHg 80%
    18:00 +24°C° 0.6 mm 1 mps 652 mmHg 87%
    19:00 +22°C° 0.6 mm 1 mps 652 mmHg 94%
    20:00 +21°C° 0.9 mm 1 mps 653 mmHg 95%
    21:00 +21°C° 0.9 mm 1 mps 653 mmHg 95%
    22:00 +21°C° 0.9 mm 1 mps 654 mmHg 95%
    23:00 +19°C° 0.6 mm 0 mps 653 mmHg 96%

    Tomorrow, 30 March, Monday

    Time Temperature Precipitation Wind Pressure Humidity
    00:00 +18°C° 0.6 mm 0 mps 653 mmHg 96%
    01:00 +18°C° 0.6 mm 0 mps 653 mmHg 96%
    02:00 +18°C° 0.3 mm 0 mps 652 mmHg 96%
    03:00 +18°C° 0.3 mm 0 mps 652 mmHg 97%
    04:00 +18°C° 0.3 mm 0 mps 652 mmHg 97%
    05:00 +18°C° 0 mm 0 mps 653 mmHg 96%
    06:00 +18°C° 0 mm 0 mps 653 mmHg 96%
    07:00 +18°C° 0 mm 0 mps 653 mmHg 95%
    08:00 +21°C° 0.2 mm 0 mps 654 mmHg 86%
    09:00 +23°C° 0.2 mm 0 mps 654 mmHg 78%
    10:00 +27°C° 0.2 mm 1 mps 655 mmHg 69%
    11:00 +26°C° 0.4 mm 0 mps 655 mmHg 65%
    12:00 +27°C° 0.4 mm 0 mps 654 mmHg 60%
    13:00 +29°C° 0.4 mm 0 mps 654 mmHg 56%
    14:00 +28°C° 0.8 mm 0 mps 653 mmHg 61%
    15:00 +29°C° 0.8 mm 1 mps 652 mmHg 67%
    16:00 +27°C° 0.8 mm 1 mps 652 mmHg 73%
    17:00 +26°C° 0.8 mm 1 mps 651 mmHg 80%
    18:00 +24°C° 0.8 mm 1 mps 651 mmHg 87%
    19:00 +22°C° 0.8 mm 1 mps 651 mmHg 94%
    20:00 +22°C° 1.2 mm 1 mps 652 mmHg 95%
    21:00 +21°C° 1.2 mm 1 mps 652 mmHg 96%
    22:00 +21°C° 1.2 mm 1 mps 653 mmHg 96%
    23:00 +19°C° 0.7 mm 0 mps 652 mmHg 96%

    Day after tomorrow, 31 March, Tuesday

    Time Temperature Precipitation Wind Pressure Humidity
    00:00 +19°C° 0.7 mm 0 mps 652 mmHg 97%
    01:00 +19°C° 0.7 mm 0 mps 652 mmHg 97%
    02:00 +19°C° 0.6 mm 0 mps 652 mmHg 97%
    03:00 +19°C° 0.6 mm 0 mps 652 mmHg 97%
    04:00 +19°C° 0.6 mm 0 mps 651 mmHg 98%
    05:00 +19°C° 0.5 mm 0 mps 652 mmHg 97%
    06:00 +19°C° 0.5 mm 0 mps 652 mmHg 97%
    07:00 +19°C° 0.5 mm 0 mps 652 mmHg 97%
    08:00 +20°C° 0.7 mm 0 mps 653 mmHg 93%
    09:00 +21°C° 0.7 mm 0 mps 653 mmHg 90%
    10:00 +23°C° 0.7 mm 0 mps 654 mmHg 86%
    11:00 +24°C° 1.1 mm 0 mps 654 mmHg 81%
    12:00 +25°C° 1.1 mm 0 mps 653 mmHg 76%
    13:00 +26°C° 1.1 mm 0 mps 653 mmHg 72%
    14:00 +27°C° 1.2 mm 1 mps 652 mmHg 76%
    15:00 +27°C° 1.2 mm 1 mps 651 mmHg 80%
    16:00 +26°C° 1.2 mm 1 mps 651 mmHg 85%
    17:00 +24°C° 1 mm 1 mps 651 mmHg 89%
    18:00 +23°C° 1 mm 1 mps 651 mmHg 92%
    19:00 +21°C° 1 mm 1 mps 651 mmHg 96%
    20:00 +21°C° 0.7 mm 1 mps 651 mmHg 96%
    21:00 +21°C° 0.7 mm 1 mps 652 mmHg 96%
    22:00 +19°C° 0.7 mm 0 mps 652 mmHg 97%
    23:00 +19°C° 0.4 mm 0 mps 652 mmHg 97%

    1 April, Wednesday

    Time Temperature Precipitation Wind Pressure Humidity
    00:00 +19°C° 0.4 mm 0 mps 652 mmHg 97%
    01:00 +18°C° 0.4 mm 0 mps 651 mmHg 97%
    02:00 +18°C° 0.5 mm 0 mps 651 mmHg 97%
    03:00 +18°C° 0.5 mm 0 mps 651 mmHg 97%
    04:00 +18°C° 0.5 mm 0 mps 651 mmHg 98%
    05:00 +18°C° 0.2 mm 0 mps 652 mmHg 97%
    06:00 +19°C° 0.2 mm 0 mps 652 mmHg 97%
    07:00 +19°C° 0.2 mm 0 mps 652 mmHg 97%
    08:00 +20°C° 0.4 mm 0 mps 653 mmHg 94%
    09:00 +20°C° 0.4 mm 0 mps 654 mmHg 91%
    10:00 +21°C° 0.4 mm 0 mps 654 mmHg 87%
    11:00 +22°C° 1.1 mm 0 mps 654 mmHg 86%
    12:00 +23°C° 1.1 mm 0 mps 654 mmHg 84%
    13:00 +23°C° 1.1 mm 0 mps 653 mmHg 83%
    14:00 +25°C° 1.1 mm 1 mps 653 mmHg 83%
    15:00 +25°C° 1.1 mm 1 mps 652 mmHg 84%
    16:00 +25°C° 1.1 mm 1 mps 652 mmHg 84%
    17:00 +24°C° 0.7 mm 1 mps 652 mmHg 88%
    18:00 +23°C° 0.7 mm 1 mps 652 mmHg 92%
    19:00 +19°C° 0.7 mm 0 mps 652 mmHg 96%
    20:00 +19°C° 0.2 mm 0 mps 652 mmHg 96%
    21:00 +19°C° 0.2 mm 0 mps 653 mmHg 96%
    22:00 +19°C° 0.2 mm 0 mps 653 mmHg 96%
    23:00 +18°C° 0.1 mm 0 mps 653 mmHg 96%

    2 April, Thursday

    Time Temperature Precipitation Wind Pressure Humidity
    00:00 +18°C° 0.1 mm 0 mps 653 mmHg 97%
    01:00 +18°C° 0.1 mm 0 mps 652 mmHg 97%
    02:00 +18°C° 0.3 mm 0 mps 652 mmHg 97%
    03:00 +18°C° 0.3 mm 0 mps 652 mmHg 97%
    04:00 +18°C° 0.3 mm 0 mps 652 mmHg 97%
    05:00 +18°C° 0.2 mm 0 mps 653 mmHg 97%
    06:00 +18°C° 0.2 mm 0 mps 653 mmHg 97%
    07:00 +19°C° 0.2 mm 0 mps 654 mmHg 96%
    08:00 +20°C° 0.4 mm 0 mps 654 mmHg 92%
    09:00 +21°C° 0.4 mm 0 mps 655 mmHg 88%
    10:00 +23°C° 0.4 mm 0 mps 656 mmHg 84%
    11:00 +24°C° 1 mm 0 mps 655 mmHg 80%
    12:00 +25°C° 1 mm 0 mps 655 mmHg 77%
    13:00 +26°C° 1 mm 0 mps 654 mmHg 73%
    14:00 +25°C° 1.5 mm 0 mps 653 mmHg 78%
    15:00 +26°C° 1.5 mm 1 mps 653 mmHg 83%
    16:00 +26°C° 1.5 mm 1 mps 652 mmHg 88%
    17:00 +24°C° 0.9 mm 1 mps 652 mmHg 90%
    18:00 +23°C° 0.9 mm 1 mps 653 mmHg 93%
    19:00 +22°C° 0.9 mm 1 mps 653 mmHg 95%
    20:00 +21°C° 1.3 mm 1 mps 653 mmHg 96%
    21:00 +21°C° 1.3 mm 1 mps 654 mmHg 97%
    22:00 +19°C° 1.3 mm 0 mps 654 mmHg 97%
    23:00 +19°C° 1 mm 0 mps 654 mmHg 97%

    3 April, Friday

    Time Temperature Precipitation Wind Pressure Humidity
    00:00 +19°C° 1 mm 0 mps 654 mmHg 98%
    01:00 +19°C° 1 mm 0 mps 653 mmHg 98%
    02:00 +19°C° 1.6 mm 0 mps 653 mmHg 98%
    03:00 +19°C° 1.6 mm 0 mps 653 mmHg 98%
    04:00 +18°C° 1.6 mm 0 mps 653 mmHg 98%
    05:00 +19°C° 1.6 mm 0 mps 653 mmHg 98%
    06:00 +19°C° 1.6 mm 0 mps 653 mmHg 98%
    07:00 +19°C° 1.6 mm 0 mps 654 mmHg 98%
    08:00 +20°C° 0.7 mm 0 mps 654 mmHg 95%
    09:00 +20°C° 0.7 mm 0 mps 655 mmHg 93%
    10:00 +21°C° 0.7 mm 0 mps 656 mmHg 90%
    11:00 +23°C° 1 mm 0 mps 655 mmHg 85%
    12:00 +24°C° 1 mm 0 mps 655 mmHg 80%
    13:00 +25°C° 1 mm 0 mps 654 mmHg 75%
    14:00 +25°C° 0.8 mm 0 mps 654 mmHg 75%
    15:00 +25°C° 0.8 mm 0 mps 653 mmHg 74%
    16:00 +25°C° 0.8 mm 0 mps 652 mmHg 74%
    17:00 +23°C° 0.8 mm 0 mps 652 mmHg 80%
    18:00 +22°C° 0.8 mm 0 mps 652 mmHg 87%
    19:00 +22°C° 0.8 mm 1 mps 652 mmHg 94%
    20:00 +22°C° 0.2 mm 1 mps 653 mmHg 94%
    21:00 +19°C° 0.2 mm 0 mps 653 mmHg 95%
    22:00 +19°C° 0.2 mm 0 mps 653 mmHg 95%
    23:00 +18°C° 0.1 mm 0 mps 653 mmHg 96%
    Show more